Regional Weather Roundup
Issued by NWS

Home | Current Version | Previous Version | Text Only | Print | Product List | Glossary On
Versions: 1 2 3 4 5 6 7 8 9 10 11 12 13 14 15 16 17 18 19 20 21 22 23 24 25 26 27 28 29 30 31 32 33 34 35 36 37 38 39 40 41 42 43 44 45 46 47 48 49 50
000
ASUS45 KBOU 091110
RWRCO

WEATHER ROUNDUP FOR COLORADO
NATIONAL WEATHER SERVICE DENVER/BOULDER CO
400 AM MST MON DEC 09 2019

NOTE: "FAIR" INDICATES FEW OR NO CLOUDS BELOW 12000 FEET WITH NO
SIGNIFICANT WEATHER AND/OR OBSTRUCTIONS TO VISIBILITY.

COZ001>005-013-030-031-091200-
...NORTHWEST COLORADO...

CITY           SKY/WX    TMP DP  RH WIND       PRES   REMARKS
CRAIG          CLOUDY    30  26  85 W7        29.93R WCI  23
HAYDEN         MIX PCPN  29  27  92 W9        29.93S WCI  20
MEEKER         CLOUDY    27  25  92 NE5       29.95S WCI  22
RANGELY        CLOUDY    30  30 100 CALM      29.97R
RABBIT EARS PA SNOW     N/A N/A N/A W7G16     29.85F VSB 1/2
STEAMBOAT SPGS CLOUDY    28  28 100 CALM      29.89F
WALDEN         NOT AVBL
$$

COZ006>008-011-091200-
...WEST CENTRAL VALLEYS...

CITY           SKY/WX    TMP DP  RH WIND       PRES   REMARKS
GRAND JUNCTION FOG       32  30  92 SE5       29.96S VSB 1/2 WCI  27
MONTROSE       MOCLDY    29  27  92 SE7       29.99S WCI  22
EAGLE          CLOUDY    28  27  96 SE5       29.95R WCI  23
RIFLE          CLOUDY    34  31  88 W5        29.96R WCI  30
DELTA          CLOUDY    35  34  93 CALM      29.97S
NUCLA          NOT AVBL
$$

COZ017>023-064>068-091200-
...SOUTHWEST COLORADO...

CITY           SKY/WX    TMP DP  RH WIND       PRES   REMARKS
DURANGO        FAIR      29  28  96 CALM      29.92S
CORTEZ         FAIR      30  29  96 E3        29.95S
PAGOSA SPRINGS CLOUDY    32  32 100 CALM      29.93S
TELLURIDE      CLOUDY    25  23  93 CALM      29.97F
WOLF CREEK PAS LGT SNOW  18  18 100 SW7       29.97F VSB 1   WCI   8
$$

COZ009-010-012-014-032>034-037-058>063-091200-
...CENTRAL COLORADO...

CITY           SKY/WX    TMP DP  RH WIND       PRES   REMARKS
ASPEN          MOCLDY    25  20  81 S6        29.91F WCI  18
BUENA VISTA    FAIR      21  13  69 E3        29.89R
COPPER MTN     CLOUDY    18  12  79 W18G25    29.86S WCI   2
BERTHOUD PASS  CLOUDY     9  -6  52 NW35      29.78F WCI -15
DAKOTA HILL      N/A     14  12  92 NW22G43   29.79R WCI  -4
COTTONWOOD PAS FAIR      27  12  54 W20G35    29.87S WCI  13
GUNNISON       FLURRIES  22  20  92 SW3       29.94S
GRANBY         FLURRIES  26  22  85 W7        29.88S WCI  18
KREMMLING      CLOUDY    30  27  86 W6        29.90S WCI  24
LEADVILLE      CLOUDY    16  11  80 NE7       29.88F WCI   6
MONARCH PASS   CLOUDY    16  12  86 MISG      29.99S
SALIDA         FAIR      27  20  73 W7        29.97S WCI  20
SUNLIGHT       NOT AVBL
WILKERSON PASS FAIR      14   9  79 W12G23    29.85S WCI   0
$$

COZ069>075-091200-
...SAN LUIS VALLEY/SANGRE DE CRISTO MOUNTAINS...

CITY           SKY/WX    TMP DP  RH WIND       PRES   REMARKS
ALAMOSA        FAIR      24  22  91 CALM      29.89S
DEL NORTE      FAIR      20  15  79 W5        29.91S WCI  14
LA VETA PASS   MOCLDY    19  19 100 W12       29.85S WCI   7
SAGUACHE       FAIR      27  19  74 CALM      29.91R
$$

COZ035-036-038>040-091200-
...NORTHERN COLORADO FRONT RANGE...

CITY           SKY/WX    TMP DP  RH WIND       PRES   REMARKS
DENVER INTL AP FAIR      24  21  88 CALM      29.90R
AURORA         CLOUDY    25  23  90 CALM      29.90R
FRONT RANGE AP FAIR      26  23  89 CALM      29.90R
ERIE MUNI ARPT MOCLDY    27  23  86 CALM      29.96S
BOULDER MUN AP CLOUDY    30  27  86 SE6       29.89R WCI  24
CENTENNIAL     CLOUDY    27  22  81 NE8       29.89R WCI  19
BROOMFIELD     FAIR      28  25  86 SE3       29.89S
FORT COLLINS   CLOUDY    28  23  81 SW6       29.90R WCI  22
LONGMONT       CLOUDY    32  25  77 SE5       29.91S WCI  27
$$

COZ041-046-047-076>085-087-088-091200-
...PIKES PEAK/PALMER DIVIDE AND SOUTHERN FOOTHILLS...

CITY           SKY/WX    TMP DP  RH WIND       PRES   REMARKS
COLO. SPRINGS  FAIR      29  21  72 NE22G29   29.81R WCI  15
A. F. ACADEMY  FAIR      27  22  82 N17       29.81R WCI  14
SCHRIEVER AFB  NOT AVBL
CHEYENNE MTN   NOT AVBL
ELLICOTT       NOT AVBL
FALCON         MOCLDY    27  25  93 N17G29    29.82F WCI  14
FORT CARSON    NOT AVBL
LIMON          CLOUDY    25  22  88 N20       29.86R WCI  11
MONUMENT HILL  CLOUDY    21  21 100 MISG      29.87R FOG
CANON CITY     NOT AVBL
WALSENBURG     NOT AVBL
TRINIDAD       FAIR      37  23  56 E6        29.82R
$$

COZ042>045-048>051-090-091-091200-
...NORTHEAST COLORADO...

CITY           SKY/WX    TMP DP  RH WIND       PRES   REMARKS
GREELEY ARPT   FLURRIES  27  19  72 VRB3      29.91R
AKRON          FAIR      22  18  85 N25G32    29.84R WCI   5
BURLINGTON     CLOUDY    31  23  72 N24G35    29.83R WCI  17
WRAY           CLOUDY    28  23  80 N18G24    29.88R WCI  16
YUMA           FAIR      25  19  80 N15G25    29.87R WCI  12
STERLING       CLOUDY    28  19  69 N20G29    29.88R WCI  15
HOLYOKE        CLOUDY    28  19  69 N17G30    29.88R WCI  16
FORT MORGAN    NOT AVBL
$$

COZ086-089-092>099-091200-
...SOUTHEAST COLORADO...

CITY           SKY/WX    TMP DP  RH WIND       PRES   REMARKS
PUEBLO         FAIR      38  22  52 NE14      29.83R
LA JUNTA       FAIR      36  27  69 NE16G28   29.85R
LAMAR          FAIR      34  26  72 N9        29.82R WCI  27
SPRINGFIELD      N/A     38  26  62 N15G28    29.79R
$$



USA.gov is the U.S. government's official web portal to all federal, state and local government web resources and services.